"2009-01-10 00:00:00",527398,13.65,36.11,3.304,0.889,6.921,100.1464,-0.326,0.897,46.31,0,109.5,13.6,0.42,358.1
"2009-01-10 00:00:30",527399,14.98,34.93,3.676,0.963,6.987,100.1387,-0.346,0.892,46.16,0,109.5,13.6,0.40,356.9
"2009-01-10 00:01:00",527400,14.98,35.98,3.524,0.903,6.927,100.1342,-0.357,0.892,45.96,0,109.5,13.6,0.39,358.0
"2009-01-10 00:01:30",527401,14.52,36.62,2.632,0.861,7.17,100.1305,-0.367,0.876,46,0,109.5,13.6,0.38,358.6
"2009-01-10 00:02:00",527402,15.53,34.78,4.055,1.087,7.113,100.1311,-0.365,0.873,45.98,0,109.5,13.6,0.39,356.8
"2009-01-10 00:02:30",527403,16.07,33.65,3.742,0.717,7.194,100.1308,-0.366,0.885,45.22,0,109.5,13.6,0.38,355.6
"2009-01-10 00:03:00",527404,15.78,34.25,3.463,0.8,7.058,100.1282,-0.373,0.85,45.12,0,109.5,13.6,0.38,356.2
"2009-01-10 00:03:30",527405,15.98,34.83,2.296,0.855,7.256,100.1243,-0.383,0.864,44.85,0,109.5,13.6,0.37,356.8
"2009-01-10 00:04:00",527406,15.72,34.57,3.141,0.871,7.107,100.1212,-0.391,0.845,45.01,0,109.5,13.6,0.36,356.6
"2009-01-10 00:04:30",527407,15.01,35,2.891,0.844,7.116,100.1183,-0.398,0.833,44.09,0,109.5,13.6,0.35,357.0
"2009-01-10 00:05:00",527408,15.91,34.54,2.75,0.93,7.099,100.1189,-0.396,0.828,44.19,0,109.5,13.6,0.35,356.5
"2009-01-10 00:05:30",527409,15.69,34.84,2.961,0.872,7.233,100.1189,-0.396,0.817,44.03,0,109.5,13.6,0.35,356.8
"2009-01-10 00:06:00",527410,15.81,34.03,3.645,1.056,7.141,100.1189,-0.396,0.814,44.28,0,109.5,13.6,0.35,356.0
"2009-01-10 00:06:30",527411,15.07,34.43,3.629,0.886,7.148,100.1166,-0.402,0.818,44.26,0,109.5,13.6,0.35,356.4
"2009-01-10 00:07:00",527412,14.36,35.38,3.834,0.927,7.116,100.1079,-0.425,0.812,44.48,0,109.5,13.6,0.33,357.4
"2009-01-10 00:07:30",527413,14.1,36.05,1.828,1.029,7.152,100.1031,-0.437,0.809,44.08,0,109.5,13.6,0.31,358.0
"2009-01-10 00:08:00",527414,13.97,36.11,4.104,0.684,7.125,100.1019,-0.44,0.789,43.68,0,109.5,13.6,0.31,358.1
"2009-01-10 00:08:30",527415,14.18,36.24,3.115,1.085,6.86,100.1011,-0.442,0.8,43.9,0,109.5,13.6,0.31,358.2
"2009-01-10 00:09:00",527416,13.73,37.21,3.654,0.965,6.892,100.1013,-0.441,0.805,44.11,0,109.5,13.6,0.31,359.2
"2009-01-10 00:09:30",527417,13.48,36.5,4.205,0.839,6.924,100.0937,-0.461,0.779,44.38,0,109.5,13.59,0.29,358.5
"2009-01-10 00:10:00",527418,13.16,36.87,3.952,0.735,7.073,100.0883,-0.474,0.777,44.41,0,109.5,13.59,0.28,358.9
"2009-01-10 00:10:30",527419,13.48,37.13,3.618,0.649,6.816,100.0852,-0.482,0.78,43.86,0,109.5,13.59,0.27,359.1
"2009-01-10 00:11:00",527420,12.95,37.78,3.211,0.709,6.859,100.0852,-0.482,0.763,43.36,0,109.5,13.59,0.27,359.8
"2009-01-10 00:11:30",527421,13.36,36.91,2.806,0.774,6.958,100.0855,-0.482,0.747,42.87,0,109.5,13.59,0.27,358.9
"2009-01-10 00:12:00",527422,13.29,36.9,3.596,0.822,6.785,100.0861,-0.48,0.763,43.39,0,109.5,13.59,0.27,358.9
"2009-01-10 00:12:30",527423,13.19,36.59,3.267,0.652,6.747,100.0866,-0.479,0.767,43.43,0,109.5,13.6,0.27,358.6
"2009-01-10 00:13:00",527424,13.19,37.31,3.519,0.64,6.756,100.0824,-0.49,0.754,43.43,0,109.5,13.6,0.26,359.3
"2009-01-10 00:13:30",527425,13.5,37.85,3.668,0.614,6.865,100.0787,-0.499,0.745,43.48,0,109.5,13.6,0.25,359.9
"2009-01-10 00:14:00",527426,13.3,36.66,3.446,0.729,6.771,100.073,-0.513,0.749,43.49,0,109.5,13.6,0.24,358.7
"2009-01-10 00:14:30",527427,13.65,35.75,3.664,0.756,6.737,100.0719,-0.516,0.726,42.92,0,109.5,13.6,0.23,357.8
"2009-01-10 00:15:00",527428,12.64,37.59,2.789,0.929,6.719,100.073,-0.513,0.733,43.11,0,109.5,13.6,0.24,359.6
"2009-01-10 00:15:30",527429,13.71,35.82,2.947,0.734,6.796,100.0733,-0.513,0.718,42.96,0,109.5,13.6,0.24,357.8
"2009-01-10 00:16:00",527430,14.06,35.68,4.05,0.758,6.797,100.0699,-0.521,0.722,42.76,0,109.5,13.6,0.23,357.7
"2009-01-10 00:16:30",527431,13.96,35.92,3.693,0.656,6.945,100.0696,-0.522,0.736,42.71,0,109.5,13.6,0.23,357.9
"2009-01-10 00:17:00",527432,13.57,37.49,2.754,0.881,6.772,100.0702,-0.521,0.711,42.14,0,109.5,13.6,0.23,359.5
"2009-01-10 00:17:30",527433,14.28,34.98,2.576,0.674,6.895,100.0708,-0.519,0.704,42.39,0,109.5,13.6,0.23,357.0
"2009-01-10 00:18:00",527434,14.11,36.49,3.104,1.014,6.744,100.0674,-0.528,0.699,42.43,0,109.5,13.6,0.22,358.5
"2009-01-10 00:18:30",527435,14.11,35.48,2.644,1.066,6.699,100.0685,-0.525,0.705,42.94,0,109.5,13.6,0.23,357.5
"2009-01-10 00:19:00",527436,13.63,36.19,3.614,1.016,6.771,100.0614,-0.543,0.689,43.2,0,109.5,13.6,0.21,358.2
"2009-01-10 00:19:30",527437,13.78,36.52,3.711,1.027,6.746,100.058,-0.552,0.686,43.66,0,109.5,13.6,0.20,358.5
"2009-01-10 00:20:00",527438,14.02,34.84,3.348,0.754,6.828,100.0583,-0.551,0.686,43.54,0,109.6,13.6,0.20,356.8
"2009-01-10 00:20:30",527439,13.67,35.89,3.776,0.697,6.837,100.0589,-0.549,0.672,42.56,0,109.5,13.6,0.20,357.9
"2009-01-10 00:21:00",527440,13.92,36.3,3.565,0.822,6.715,100.0572,-0.554,0.658,43.09,0,109.5,13.61,0.20,358.3
"2009-01-10 00:21:30",527441,13.59,37.63,3.288,0.687,6.934,100.0529,-0.565,0.665,42.47,0,109.5,13.61,0.19,359.6
"2009-01-10 00:22:00",527442,13.88,38.94,4.042,1.046,6.702,100.0495,-0.573,0.658,42.31,0,109.5,13.61,0.18,0.9
"2009-01-10 00:22:30",527443,13.55,39.02,3.817,0.95,6.728,100.0459,-0.583,0.678,42.79,0,109.5,13.61,0.17,1.0
"2009-01-10 00:23:00",527444,13.06,38.1,3.782,0.806,6.719,100.0459,-0.583,0.679,42.53,0,109.5,13.61,0.17,0.1
"2009-01-10 00:23:30",527445,13.97,37.53,3.632,0.967,6.949,100.0433,-0.589,0.657,41.91,0,109.5,13.61,0.16,359.5
"2009-01-10 00:24:00",527446,13.02,37.68,4.055,0.866,6.649,100.0444,-0.586,0.647,42.26,0,109.5,13.61,0.16,359.7
"2009-01-10 00:24:30",527447,12.4,39.3,3.446,0.803,6.64,100.0427,-0.591,0.681,42.88,0,109.5,13.6,0.16,1.3
"2009-01-10 00:25:00",527448,13.12,38.62,3.448,0.851,6.742,100.0436,-0.588,0.65,41.5,0,109.5,13.6,0.16,0.6
"2009-01-10 00:25:30",527449,13.24,40.13,2.882,0.883,6.693,100.043,-0.59,0.67,41.33,0,109.5,13.6,0.16,2.1
"2009-01-10 00:26:00",527450,12.93,39.84,3.912,1.084,6.614,100.0439,-0.588,0.661,41.49,0,109.5,13.6,0.16,1.8
"2009-01-10 00:26:30",527451,12.58,40.02,4.11,0.971,6.621,100.0453,-0.584,0.669,41.27,0,109.5,13.6,0.17,2.0
"2009-01-10 00:27:00",527452,12.48,39.84,4.203,1.109,6.63,100.0467,-0.58,0.659,41.54,0,109.5,13.6,0.17,1.8
"2009-01-10 00:27:30",527453,12.27,40.46,3.95,0.802,6.719,100.047,-0.58,0.653,41.91,0,109.5,13.6,0.17,2.5
"2009-01-10 00:28:00",527454,12.67,39.63,3.501,1.036,6.601,100.0476,-0.578,0.657,41.44,0,109.5,13.6,0.17,1.6
"2009-01-10 00:28:30",527455,12.64,39.8,4.007,0.74,6.707,100.0481,-0.577,0.661,40.68,0,109.5,13.6,0.17,1.8
"2009-01-10 00:29:00",527456,12.18,38.44,3.867,0.715,6.607,100.0467,-0.58,0.652,40.42,0,109.5,13.6,0.17,0.4
"2009-01-10 00:29:30",527457,12.38,39.24,3.32,0.445,6.663,100.0464,-0.581,0.655,40.63,0,109.5,13.6,0.17,1.2
"2009-01-10 00:30:00",527458,12.27,39.27,3.14,0.773,6.472,100.0464,-0.581,0.641,40.62,0,109.5,13.61,0.17,1.3
"2009-01-10 00:30:30",527459,12.43,39.07,3.45,0.655,6.541,100.0444,-0.586,0.652,40.82,0,109.5,13.61,0.16,1.1
"2009-01-10 00:31:00",527460,13,37.02,3.814,0.786,6.778,100.0436,-0.588,0.647,40.71,0,109.5,13.61,0.16,359.0
"2009-01-10 00:31:30",527461,13.01,38.56,3.416,0.671,6.796,100.0462,-0.582,0.638,40.35,0,109.5,13.61,0.17,0.6
"2009-01-10 00:32:00",527462,12.71,38.1,3.641,0.728,6.631,100.0464,-0.581,0.626,40.25,0,109.5,13.61,0.17,0.1
"2009-01-10 00:32:30",527463,12.39,38.93,3.757,0.763,6.537,100.0484,-0.576,0.653,40.52,0,109.5,13.61,0.17,0.9
"2009-01-10 00:33:00",527464,13.12,36.5,3.109,0.817,6.63,100.0484,-0.576,0.637,40.85,0,109.5,13.61,0.17,358.5
"2009-01-10 00:33:30",527465,13.41,36.45,2.892,0.954,6.764,100.0484,-0.576,0.646,41.1,0,109.5,13.61,0.17,358.5
"2009-01-10 00:34:00",527466,12.59,38.01,4.024,0.607,6.625,100.0481,-0.577,0.63,40.99,0,109.5,13.61,0.17,0.0
"2009-01-10 00:34:30",527467,12.91,36.88,4.113,0.655,6.692,100.0464,-0.581,0.656,40.88,0,109.5,13.61,0.17,358.9
"2009-01-10 00:35:00",527468,13.51,34.62,4.165,0.708,6.725,100.0439,-0.588,0.649,40.99,0,109.5,13.61,0.16,356.6
"2009-01-10 00:35:30",527469,13.06,36.32,3.735,0.624,6.88,100.0413,-0.594,0.639,40.99,0,109.5,13.61,0.16,358.3
"2009-01-10 00:36:00",527470,13.12,35.86,4.06,1.059,6.714,100.0385,-0.601,0.639,41.1,0,109.5,13.61,0.15,357.9
"2009-01-10 00:36:30",527471,13.19,34.14,4.038,0.77,6.698,100.0343,-0.612,0.66,41.42,0,109.5,13.61,0.14,356.1
"2009-01-10 00:37:00",527472,13.63,34.06,4.23,0.774,6.62,100.034,-0.613,0.627,41.44,0,109.5,13.62,0.14,356.1
"2009-01-10 00:37:30",527473,13.55,33.97,4.01,0.845,6.811,100.034,-0.613,0.625,41.64,0,109.5,13.62,0.14,356.0
"2009-01-10 00:38:00",527474,13.47,34.73,3.698,0.726,6.608,100.034,-0.613,0.604,41.7,0,109.5,13.62,0.14,356.7
"2009-01-10 00:38:30",527475,13.65,34.67,3.976,0.718,6.618,100.0337,-0.614,0.61,42.11,0,109.5,13.61,0.14,356.7
"2009-01-10 00:39:00",527476,13.53,34.91,4.083,0.555,6.724,100.0303,-0.622,0.581,42.39,0,109.5,13.62,0.13,356.9
"2009-01-10 00:39:30",527477,14.08,34.84,3.415,0.81,6.751,100.0195,-0.65,0.572,42.52,0,109.5,13.62,0.10,356.8
"2009-01-10 00:40:00",527478,13.85,33.25,3.355,0.788,6.636,100.0164,-0.658,0.562,42.5,0,109.5,13.62,0.09,355.2
"2009-01-10 00:40:30",527479,14.34,32.11,2.914,0.719,6.621,100.0045,-0.688,0.564,42.68,0,109.5,13.61,0.06,354.1
"2009-01-10 00:41:00",527480,13.91,32.91,3.489,0.613,6.652,100,-0.7,0.529,42.78,0,109.5,13.6,0.05,354.9
"2009-01-10 00:41:30",527481,13.47,33.72,2.561,0.659,6.794,100,-0.7,0.516,42.8,0,109.5,13.61,0.05,355.7
"2009-01-10 00:42:00",527482,13.53,33.05,3.208,0.701,6.621,99.99773,-0.705,0.515,42.92,0,109.5,13.6,0.04,355.0
"2009-01-10 00:42:30",527483,13.23,32.64,4.351,0.592,6.643,99.98867,-0.728,0.506,43.03,0,109.5,13.6,0.02,354.6
"2009-01-10 00:43:00",527484,12.94,33.43,4.162,0.528,6.651,99.98244,-0.744,0.483,43.16,0,109.5,13.61,0.01,355.4
"2009-01-10 00:43:30",527485,12.88,34.36,3.432,0.737,6.782,99.97904,-0.753,0.469,43.08,0,109.5,13.61,-0.00,356.4
"2009-01-10 00:44:00",527486,12.74,34.74,3.445,0.728,6.374,99.97423,-0.765,0.466,43.07,0,109.5,13.61,-0.02,356.7
"2009-01-10 00:44:30",527487,13.02,34.82,3.67,0.861,6.502,99.96885,-0.779,0.465,42.78,0,109.5,13.61,-0.03,356.8
"2009-01-10 00:45:00",527488,12.16,35.95,3.829,0.865,6.363,99.96602,-0.786,0.441,42.91,0,109.5,13.61,-0.04,358.0
"2009-01-10 00:45:30",527489,12.6,34.95,4.266,0.555,6.675,99.96602,-0.786,0.45,43.03,0,109.5,13.61,-0.04,357.0
"2009-01-10 00:46:00",527490,12.91,34.77,3.966,0.812,6.422,99.96602,-0.786,0.43,42.67,0,109.6,13.62,-0.04,356.8
"2009-01-10 00:46:30",527491,12.85,35.55,3.873,0.854,6.366,99.96602,-0.786,0.448,42.69,0,109.5,13.62,-0.04,357.5
"2009-01-10 00:47:00",527492,12.43,35.83,4.306,0.729,6.594,99.96545,-0.788,0.432,42.55,0,109.5,13.62,-0.04,357.8
"2009-01-10 00:47:30",527493,13.4,35.09,3.042,0.683,6.568,99.96488,-0.789,0.416,42.25,0,109.5,13.62,-0.04,357.1
"2009-01-10 00:48:00",527494,13.21,35.37,4.562,0.882,6.594,99.96177,-0.797,0.434,42.47,0,109.5,13.62,-0.05,357.4
"2009-01-10 00:48:30",527495,13.21,34.54,4.162,0.678,6.743,99.95837,-0.806,0.429,41.78,0,109.5,13.62,-0.06,356.5
"2009-01-10 00:49:00",527496,12.69,36.8,3.335,0.756,6.527,99.95866,-0.805,0.412,41.39,0,109.5,13.62,-0.06,358.8
"2009-01-10 00:49:30",527497,12.97,36.83,2.469,0.678,6.659,99.96035,-0.801,0.41,41.35,0,109.5,13.62,-0.05,358.8
"2009-01-10 00:50:00",527498,12.69,36.36,3.376,0.736,6.479,99.95866,-0.805,0.405,41.42,0,109.5,13.62,-0.06,358.4
"2009-01-10 00:50:30",527499,12.19,36.69,3.387,0.755,6.452,99.95695,-0.809,0.433,41.81,0,109.5,13.62,-0.06,358.7
"2009-01-10 00:51:00",527500,12.57,36.51,4.092,0.667,6.473,99.95299,-0.819,0.419,41.76,0,109.5,13.62,-0.07,358.5
"2009-01-10 00:51:30",527501,12.99,36,3.277,0.719,6.586,99.95101,-0.824,0.396,41.63,0,109.5,13.62,-0.08,358.0
"2009-01-10 00:52:00",527502,13.29,34.19,3.985,0.7,6.435,99.95044,-0.826,0.413,41.67,0,109.5,13.62,-0.08,356.2
"2009-01-10 00:52:30",527503,13.73,34.6,4.119,0.675,6.34,99.94902,-0.83,0.421,41.72,0,109.5,13.62,-0.08,356.6
"2009-01-10 00:53:00",527504,13.59,35.26,4.083,0.618,6.456,99.94591,-0.837,0.389,41.9,0,109.5,13.62,-0.09,357.3
"2009-01-10 00:53:30",527505,13.44,35.25,3.942,0.474,6.766,99.94591,-0.837,0.397,41.03,0,109.5,13.62,-0.09,357.2
"2009-01-10 00:54:00",527506,13.26,35.09,4.348,0.65,6.68,99.94534,-0.839,0.397,40.94,0,109.5,13.62,-0.09,357.1
"2009-01-10 00:54:30",527507,13.41,35.43,4.51,0.834,6.725,99.94534,-0.839,0.41,40.78,0,109.5,13.62,-0.09,357.4
"2009-01-10 00:55:00",527508,12.77,35.91,3.949,0.604,6.693,99.94704,-0.835,0.392,40.4,0,109.5,13.62,-0.09,357.9
"2009-01-10 00:55:30",527509,13.04,35.73,3.927,0.676,6.656,99.94761,-0.833,0.399,40.63,0,109.5,13.62,-0.08,357.7
"2009-01-10 00:56:00",527510,12.57,36.24,3.963,0.743,6.429,99.94732,-0.834,0.391,41.26,0,109.5,13.62,-0.08,358.2
"2009-01-10 00:56:30",527511,12.5,36.73,3.481,0.924,6.415,99.94534,-0.839,0.405,41.51,0,109.5,13.62,-0.09,358.7
"2009-01-10 00:57:00",527512,12.72,36.17,3.545,1.067,6.405,99.94054,-0.851,0.393,41.52,0,109.5,13.62,-0.10,358.2
"2009-01-10 00:57:30",527513,13.55,35.53,2.879,0.75,6.678,99.94223,-0.847,0.398,40.4,0,109.5,13.62,-0.10,357.5
"2009-01-10 00:58:00",527514,12.61,37.17,3.136,0.744,6.45,99.94364,-0.843,0.402,40.46,0,109.5,13.61,-0.09,359.2
"2009-01-10 00:58:30",527515,12.64,36.05,4.233,0.839,6.542,99.94393,-0.843,0.401,40.72,0,109.5,13.61,-0.09,358.0
"2009-01-10 00:59:00",527516,12.42,36.78,4.418,0.547,6.561,99.94279,-0.845,0.4,40.52,0,109.5,13.62,-0.10,358.8
"2009-01-10 00:59:30",527517,13.37,35.81,3.352,0.978,6.723,99.94279,-0.845,0.387,40.39,0,109.5,13.61,-0.10,357.8
"2009-01-10 01:00:00",527518,13.43,35.96,3.385,0.82,6.405,99.94223,-0.847,0.4,40.38,0,109.5,13.62,-0.10,358.0
"2009-01-10 01:00:30",527519,14.25,33.5,4.106,0.938,6.532,99.94138,-0.849,0.392,40.18,0,109.5,13.61,-0.10,355.5
"2009-01-10 01:01:00",527520,14.34,33.04,4.168,0.868,6.699,99.93996,-0.853,0.385,39.67,0,109.5,13.61,-0.10,355.0
"2009-01-10 01:01:30",527521,14.05,34.26,3.957,0.661,6.823,99.94364,-0.843,0.401,39.69,0,109.5,13.62,-0.09,356.3
"2009-01-10 01:02:00",527522,13.37,34.53,4.256,0.785,6.601,99.9445,-0.841,0.398,40.06,0,109.5,13.62,-0.09,356.5
"2009-01-10 01:02:30",527523,13.73,34.5,3.747,0.735,6.671,99.94393,-0.843,0.412,39.76,0,109.5,13.62,-0.09,356.5
"2009-01-10 01:03:00",527524,14.18,33.96,4.109,0.79,6.771,99.94421,-0.842,0.406,39.46,0,109.5,13.62,-0.09,356.0
"2009-01-10 01:03:30",527525,14.38,34.19,3.545,1.001,6.851,99.94563,-0.838,0.383,39.35,0,109.5,13.62,-0.09,356.2
"2009-01-10 01:04:00",527526,14.95,33.66,3.757,0.832,6.745,99.94676,-0.835,0.388,39.47,0,109.5,13.62,-0.09,355.7
"2009-01-10 01:04:30",527527,14.61,33.56,3.724,0.79,6.853,99.94761,-0.833,0.388,39.13,0,109.5,13.62,-0.08,355.6
"2009-01-10 01:05:00",527528,14.83,32.36,3.782,0.552,6.907,99.94987,-0.827,0.38,38.23,0,109.5,13.62,-0.08,354.4
"2009-01-10 01:05:30",527529,14.4,34.43,3.893,0.65,7.106,99.95242,-0.821,0.389,38.52,0,109.5,13.62,-0.07,356.4
"2009-01-10 01:06:00",527530,14.83,33.62,3.772,0.775,6.757,99.95299,-0.819,0.413,38.75,0,109.5,13.62,-0.07,355.6
"2009-01-10 01:06:30",527531,14.23,34.64,3.739,0.747,6.792,99.95809,-0.806,0.412,38.28,0,109.5,13.62,-0.06,356.6
"2009-01-10 01:07:00",527532,14.37,34.65,3.943,0.755,6.798,99.96035,-0.801,0.412,37.18,0,109.5,13.62,-0.05,356.6
"2009-01-10 01:07:30",527533,14.66,34.22,3.444,1.169,6.924,99.9663,-0.785,0.41,37.55,0,109.4,13.62,-0.04,356.2
"2009-01-10 01:08:00",527534,14.09,34.4,4.406,0.592,6.907,99.96715,-0.783,0.422,38.5,0,109.5,13.62,-0.03,356.4
"2009-01-10 01:08:30",527535,13.68,35.03,3.816,0.777,6.792,99.9663,-0.785,0.438,38.38,0,109.5,13.62,-0.04,357.0
"2009-01-10 01:09:00",527536,13.65,35.2,3.31,0.641,6.578,99.95894,-0.804,0.415,39.16,0,109.5,13.62,-0.06,357.2
"2009-01-10 01:09:30",527537,13.82,35.89,3.032,0.726,6.781,99.95186,-0.822,0.402,38.97,0,109.5,13.62,-0.07,357.9
"2009-01-10 01:10:00",527538,14.75,34.65,3.79,1.125,6.618,99.95044,-0.826,0.401,38.96,0,109.5,13.62,-0.08,356.6
"2009-01-10 01:10:30",527539,13.75,35.35,3.635,0.791,6.659,99.94987,-0.827,0.409,38.89,0,109.5,13.62,-0.08,357.4
"2009-01-10 01:11:00",527540,14.06,35.09,3.989,1.038,6.635,99.94732,-0.834,0.418,38.98,0,109.5,13.62,-0.08,357.1
"2009-01-10 01:11:30",527541,13.49,35.99,3.357,0.829,6.717,99.94421,-0.842,0.39,39.3,0,109.5,13.62,-0.09,358.0
"2009-01-10 01:12:00",527542,13.68,35.39,4.198,0.845,6.741,99.94109,-0.85,0.399,39.13,0,109.5,13.62,-0.10,357.4
"2009-01-10 01:12:30",527543,14.04,34.06,4.299,0.895,6.682,99.94081,-0.85,0.388,38.77,0,109.5,13.62,-0.10,356.1
"2009-01-10 01:13:00",527544,13.61,34.75,4.356,0.833,6.653,99.93912,-0.855,0.378,39.01,0,109.5,13.62,-0.11,356.8
"2009-01-10 01:13:30",527545,13.61,35.69,3.452,0.884,6.801,99.93657,-0.861,0.395,38.77,0,109.5,13.62,-0.11,357.7
"2009-01-10 01:14:00",527546,13.06,36.71,4.216,0.404,6.722,99.93883,-0.856,0.384,38.43,0,109.5,13.62,-0.11,358.7
"2009-01-10 01:14:30",527547,12.97,36.09,3.654,0.829,6.693,99.93685,-0.861,0.393,38.86,0,109.5,13.62,-0.11,358.1
"2009-01-10 01:15:00",527548,12.85,36.15,4.142,0.785,6.761,99.93685,-0.861,0.376,38.7,0,109.5,13.62,-0.11,358.1
"2009-01-10 01:15:30",527549,13.03,36.63,3.403,1.02,6.828,99.93685,-0.861,0.361,38.44,0,109.5,13.62,-0.11,358.6
"2009-01-10 01:16:00",527550,12.97,36.35,4.414,0.684,6.583,99.93628,-0.862,0.38,37.56,0,109.5,13.62,-0.11,358.4
"2009-01-10 01:16:30",527551,13.08,35.78,3.576,0.97,6.495,99.93629,-0.862,0.374,38.36,0,109.5,13.62,-0.11,357.8
"2009-01-10 01:17:00",527552,12.7,36.46,4.33,0.832,6.551,99.93656,-0.861,0.384,38.59,0,109.5,13.62,-0.11,358.5
"2009-01-10 01:17:30",527553,13.03,36.01,3.938,0.715,6.698,99.93996,-0.853,0.379,38.62,0,109.5,13.62,-0.10,358.0
"2009-01-10 01:18:00",527554,12.76,35.82,4.158,0.903,6.484,99.93543,-0.864,0.362,38.67,0,109.5,13.62,-0.12,357.8
"2009-01-10 01:18:30",527555,12.21,36.17,3.862,0.939,6.378,99.93176,-0.874,0.379,38.9,0,109.5,13.62,-0.12,358.2
"2009-01-10 01:19:00",527556,12.39,35.3,4.504,0.635,6.485,99.9224,-0.897,0.361,39.08,0,109.5,13.62,-0.15,357.3
"2009-01-10 01:19:30",527557,11.85,36.75,3.143,0.694,6.405,99.92155,-0.9,0.324,38.78,0,109.5,13.63,-0.15,358.8
"2009-01-10 01:20:00",527558,12.06,36.68,3.9,0.828,6.254,99.92042,-0.902,0.341,38.86,0,109.5,13.63,-0.15,358.7
"2009-01-10 01:20:30",527559,12.83,35.4,4.407,0.573,6.268,99.91674,-0.912,0.354,38.52,0,109.5,13.63,-0.16,357.4
"2009-01-10 01:21:00",527560,12.31,35.01,4.356,0.669,6.382,99.91362,-0.92,0.331,38.62,0,109.5,13.62,-0.17,357.0
"2009-01-10 01:21:30",527561,12.92,35.73,4.382,0.702,6.484,99.90853,-0.933,0.332,38.55,0,109.5,13.63,-0.18,357.7
"2009-01-10 01:22:00",527562,13.26,33.62,4.541,0.699,6.42,99.90881,-0.932,0.297,38.4,0,109.5,13.63,-0.18,355.6
"2009-01-10 01:22:30",527563,12.29,35.7,4.023,0.884,6.369,99.90796,-0.934,0.315,38.88,0,109.5,13.63,-0.19,357.7
"2009-01-10 01:23:00",527564,12.24,35.86,4.195,0.653,6.404,99.90824,-0.933,0.29,38.97,0,109.5,13.63,-0.18,357.9
"2009-01-10 01:23:30",527565,12.17,36.93,3.869,0.682,6.43,99.90796,-0.934,0.291,38.76,0,109.5,13.63,-0.19,358.9
"2009-01-10 01:24:00",527566,12.33,35.45,3.908,0.568,6.398,99.91051,-0.928,0.289,39.03,0,109.5,13.63,-0.18,357.5
"2009-01-10 01:24:30",527567,12.59,34.24,4.097,0.674,6.335,99.90881,-0.932,0.299,38.68,0,109.5,13.63,-0.18,356.2
"2009-01-10 01:25:00",527568,11.99,35.89,4.07,0.839,6.297,99.90683,-0.937,0.269,39.01,0,109.5,13.63,-0.19,357.9
"2009-01-10 01:25:30",527569,12.03,36.16,3.932,0.658,6.287,99.8955,-0.966,0.265,38.76,0,109.5,13.63,-0.22,358.2
"2009-01-10 01:26:00",527570,11.57,36.21,3.906,0.806,6.134,99.89465,-0.968,0.273,39.18,0,109.5,13.63,-0.22,358.2
"2009-01-10 01:26:30",527571,12.1,34.79,4.259,0.597,6.174,99.89522,-0.967,0.253,38.85,0,109.5,13.63,-0.22,356.8
"2009-01-10 01:27:00",527572,12.54,33.24,4.013,0.679,6.255,99.89748,-0.961,0.244,38.15,0,109.5,13.63,-0.21,355.2
"2009-01-10 01:27:30",527573,12.73,33.97,3.256,0.67,6.254,99.89577,-0.965,0.241,38.23,0,109.5,13.63,-0.22,356.0
"2009-01-10 01:28:00",527574,13.29,32.2,4.717,0.657,6.387,99.89635,-0.964,0.24,37.96,0,109.4,13.63,-0.22,354.2
"2009-01-10 01:28:30",527575,13.37,33.81,4.233,0.73,6.336,99.89663,-0.963,0.244,36.99,0,109.4,13.63,-0.21,355.8
"2009-01-10 01:29:00",527576,13.67,33.55,4.146,0.761,6.485,99.89635,-0.964,0.234,36.38,0,109.5,13.63,-0.22,355.5
"2009-01-10 01:29:30",527577,13.66,33.99,3.316,0.718,6.499,99.89719,-0.962,0.238,36.21,0,109.5,13.62,-0.21,356.0
"2009-01-10 01:30:00",527578,12.5,35.26,4.592,0.635,6.382,99.8989,-0.957,0.217,36.9,0,109.5,13.62,-0.21,357.3
"2009-01-10 01:30:30",527579,12.48,35.48,4.026,0.719,6.472,99.89776,-0.96,0.236,36.97,0,109.4,13.62,-0.21,357.5
"2009-01-10 01:31:00",527580,12.15,35.84,4.04,0.761,6.418,99.89776,-0.96,0.23,36.91,0,109.4,13.62,-0.21,357.8
"2009-01-10 01:31:30",527581,11.85,37.32,4.24,0.558,6.525,99.89719,-0.962,0.234,37.19,0,109.4,13.62,-0.21,359.3
"2009-01-10 01:32:00",527582,11.71,36.53,3.817,0.752,6.29,99.89606,-0.965,0.238,36.98,0,109.5,13.62,-0.22,358.5
"2009-01-10 01:32:30",527583,12.15,35.41,4.076,0.564,6.29,99.89776,-0.96,0.255,36.47,0,109.4,13.62,-0.21,357.4
"2009-01-10 01:33:00",527584,12.16,35.33,4.253,0.638,6.235,99.89635,-0.964,0.218,36.29,0,109.4,13.62,-0.22,357.3
"2009-01-10 01:33:30",527585,12.61,35.77,3.803,0.67,6.501,99.89606,-0.965,0.229,36.07,0,109.4,13.62,-0.22,357.8
"2009-01-10 01:34:00",527586,11.99,36.01,3.974,0.671,6.458,99.89606,-0.965,0.226,35.77,0,109.5,13.62,-0.22,358.0
"2009-01-10 01:34:30",527587,12.02,36.06,3.744,0.789,6.22,99.89719,-0.962,0.248,35.94,0,109.4,13.63,-0.21,358.1
"2009-01-10 01:35:00",527588,12.17,36.25,3.971,0.603,6.312,99.89918,-0.957,0.228,35.78,0,109.4,13.63,-0.21,358.2
"2009-01-10 01:35:30",527589,12.21,35.93,3.172,0.778,6.447,99.89861,-0.958,0.23,36.05,0,109.4,13.63,-0.21,357.9
"2009-01-10 01:36:00",527590,11.36,37.37,4.141,0.642,6.179,99.89748,-0.961,0.23,36.2,0,109.5,13.63,-0.21,359.4
"2009-01-10 01:36:30",527591,11.29,36.35,4.326,0.816,6.197,99.8969,-0.962,0.249,36.5,0,109.4,13.63,-0.21,358.4
"2009-01-10 01:37:00",527592,12.01,35.52,3.85,0.767,6.171,99.89748,-0.961,0.239,36.67,0,109.4,13.63,-0.21,357.5
"2009-01-10 01:37:30",527593,12.33,35.41,3.908,0.735,6.452,99.89577,-0.965,0.248,36.26,0,109.4,13.63,-0.22,357.4
"2009-01-10 01:38:00",527594,11.54,36.63,4.376,0.76,6.139,99.89719,-0.962,0.21,36.45,0,109.5,13.63,-0.21,358.6
"2009-01-10 01:38:30",527595,11.45,36.27,4.605,0.622,6.19,99.89549,-0.966,0.241,36.38,0,109.4,13.63,-0.22,358.3
"2009-01-10 01:39:00",527596,11.72,35.45,4.205,0.603,6.184,99.89465,-0.968,0.23,36.38,0,109.4,13.63,-0.22,357.5
"2009-01-10 01:39:30",527597,11.85,35.82,3.909,0.563,6.248,99.89493,-0.967,0.21,36.34,0,109.4,13.63,-0.22,357.8
"2009-01-10 01:40:00",527598,12.27,34.51,4.375,0.515,6.157,99.89266,-0.973,0.227,36.17,0,109.4,13.63,-0.22,356.5
"2009-01-10 01:40:30",527599,12.33,34.46,4.472,0.74,6.179,99.89323,-0.972,0.229,36.34,0,109.4,13.63,-0.22,356.5
"2009-01-10 01:41:00",527600,12.84,33.42,3.515,0.97,6.171,99.89182,-0.975,0.217,36.28,0,109.4,13.63,-0.23,355.4
"2009-01-10 01:41:30",527601,11.98,35.5,3.235,0.864,6.246,99.89153,-0.976,0.22,36.07,0,109.4,13.63,-0.23,357.5
"2009-01-10 01:42:00",527602,12.72,34.46,4.081,0.914,6.29,99.88954,-0.981,0.211,36,0,109.5,13.63,-0.23,356.5
"2009-01-10 01:42:30",527603,12.39,35.14,4.239,0.677,6.346,99.88869,-0.983,0.226,35.8,0,109.4,13.63,-0.23,357.1
"2009-01-10 01:43:00",527604,11.68,36.75,4.32,0.782,6.259,99.88756,-0.986,0.218,35.35,0,109.4,13.63,-0.24,358.8
"2009-01-10 01:43:30",527605,12.11,35.95,3.422,1.067,6.266,99.88614,-0.99,0.209,36.19,0,109.4,13.63,-0.24,358.0
"2009-01-10 01:44:00",527606,12.66,35.52,3.506,0.782,6.297,99.88246,-0.999,0.212,35.9,0,109.5,13.63,-0.25,357.5
"2009-01-10 01:44:30",527607,12.84,33.7,4.365,0.639,6.424,99.88303,-0.998,0.228,35.45,0,109.4,13.63,-0.25,355.7
"2009-01-10 01:45:00",527608,12.77,35.26,3.441,0.951,6.194,99.88331,-0.997,0.211,36.05,0,109.4,13.63,-0.25,357.3
"2009-01-10 01:45:30",527609,12.07,35.75,3.545,0.8,6.356,99.88416,-0.995,0.205,36.41,0,109.4,13.63,-0.25,357.8
"2009-01-10 01:46:00",527610,12.09,35.89,4.261,0.794,6.278,99.88501,-0.993,0.189,36.19,0,109.5,13.63,-0.24,357.9
"2009-01-10 01:46:30",527611,12.08,34.77,4.113,0.908,6.325,99.88274,-0.998,0.2,36.49,0,109.4,13.63,-0.25,356.8
"2009-01-10 01:47:00",527612,12.7,34.04,4.087,0.957,6.302,99.86858,-1.035,0.172,36.59,0,109.4,13.62,-0.29,356.0